Home > Time Zones > World Clock > Weather > Japan > Tsu > Past weeks

Flag for Japan Weather past 2 weeks in Tsu, Japan

Now
98 °F

Extremely hot.


Feels Like: 105 °F
Forecast: 72 / 98 °F
Wind: 8 mph from Northwest

Location: Tsu

Current Time: Jul 31, 2015 at 4:46:07 PM

Latest Report: Jul 31, 2015 at 4:00 PM


Visibility: N/A

Pressure: 29.77 "Hg

Humidity: 41%

Dew point: 70 °F

Location of TsuLocation

Historic Weather in Tsu — Graph

°F

Tsu temperature yesterday

Maximum temperature yesterday: 92 °F (at 1:00 PM)
Minimum temperature yesterday: 82 °F (at 4:00 AM)
Average temperature yesterday: 86 °F

Past Weeks' High & Low Weather Summary

 TemperatureHumidityPressure
High98 °F (Jul 31, 3:00 PM)96% (Jul 18, 4:00 AM)30.01 "Hg (Jul 18, 4:00 AM)
Low75 °F (Jul 18, 4:00 AM)42% (Jul 31, 3:00 PM)29.50 "Hg (Jul 16, 4:00 PM)
Average83 °F75%29.83 "Hg
* Reported Jul 16 3:00 PM — Jul 31 3:00 PM, Tsu, Weather by CustomWeather, © 2015

Note: Actual official high and low records may vary slightly from our data, if they occured in-between our weather recording intervals... More about our weather records

Advertising

Tsu weather history for previous 24 hours

 ConditionsComfort  
Time TempWeatherWind HumidityBarometerVisibility
3:00 PM
Fri, Jul 31
98 °FPassing clouds.8 mph42%29.78 "Hg9 mi
2:00 PM98 °FExtremely hot.8 mph44%29.78 "HgN/A
1:00 PM96 °FExtremely hot.9 mph43%29.80 "HgN/A
11:00 AM94 °FExtremely hot.9 mph48%29.82 "HgN/A
10:00 AM90 °FHot.6 mph59%29.83 "HgN/A
9:00 AM90 °FPassing clouds.3 mph60%29.84 "Hg6 mi
8:00 AM87 °FWarm.2 mph67%29.84 "HgN/A
7:00 AM83 °FWarm.3 mph75%29.84 "HgN/A
5:00 AM81 °FWarm.6 mph80%29.83 "HgN/A
4:00 AM81 °FWarm.5 mph79%29.82 "HgN/A
3:00 AM82 °FWarm.3 mph76%29.82 "HgN/A
2:00 AM82 °FWarm.3 mph79%29.81 "HgN/A
1:00 AM83 °FWarm.3 mph75%29.81 "HgN/A
12:00 AM83 °FWarm.3 mph76%29.80 "HgN/A
11:00 PM
Thu, Jul 30
83 °FWarm.5 mph77%29.81 "HgN/A
10:00 PM84 °FWarm.6 mph77%29.81 "HgN/A
9:00 PM85 °FPassing clouds.7 mph73%29.81 "Hg12 mi
8:00 PM87 °FWarm.7 mph69%29.80 "HgN/A
7:00 PM88 °FHot.7 mph65%29.79 "HgN/A
6:00 PM89 °FHot.8 mph63%29.78 "HgN/A
5:00 PM89 °FHot.8 mph60%29.78 "HgN/A
4:00 PM90 °FHot.8 mph61%29.78 "HgN/A
Weather by CustomWeather, © 2015

See weather overviewHow to use our weather pages